Reflectivity
-20 -13 4 -14 -2 -20 -20 -20 -12 -20 -17 -20 -20 -20 -20 -20 -20 -20 -20 -20 -20 -20 -20 -20 -20 -20 -20 -20 -20 -20 -20 -20 -20 -20 -20 -20 -20 -20 -20 -20 -20 -20 -20
-20 -1 -4 -16 -3 -20 -20 -20 -20 -20 -20 -20 -20 -20 -20 -20 -20 -20 -20 -20 -20 -20 -20 -20 -20 -20 -20 -20 -20 -20 -20 -20 -20 -20 -20 -20 -20 -20 -20 -20 -20 -20 -20
-20 -2 9 2 -20 -13 -8 -20 -20 -20 -20 -20 -20 -20 -20 -20 -20 -20 -20 -20 -20 -20 -20 -20 -20 -20 -20 -20 -20 -20 -20 -20 -20 -20 -20 -20 -20 -20 -20 -20 -20 -20 -20
10 10 12 -18 -20 -20 -20 -20 -20 -20 -20 -20 -20 -20 -20 -20 -20 -20 -20 -20 -20 -20 -20 -20 -20 -20 -20 -20 -20 -20 -20 -20 -20 -20 -20 -20 -20 -20 -20 -20 -20 -20 -20
10 17 -13 -20 -20 -20 -20 -20 -20 -20 -20 -20 -20 -20 -20 -20 -20 -20 -20 -20 -20 -20 -20 -20 -20 -20 -20 -20 -20 -20 -20 -20 -20 -20 -20 -20 -20 -20 -20 -20 -20 -20 -20
13 -19 -19 -1 -13 -20 -20 -20 -20 -20 -20 -20 -20 -20 -20 -20 -20 -20 -20 -20 -20 -20 -20 -20 -20 -20 -20 -20 -20 -20 -20 -20 -20 -20 -20 -20 -20 -20 -20 -20 -20 -20 -20
3 -20 -20 -20 -20 -20 -20 -20 -20 -20 -20 -20 -20 -20 -20 -20 -20 -20 -20 -20 -20 -20 -20 -20 -20 -20 -20 -20 -20 -20 -20 -20 -20 -20 -20 -20 -20 -20 -20 -20 -20 -20 -20
-14 -7 -19 -19 -20 -5 -15 -20 -20 -20 -20 -20 -20 -20 -20 -20 -20 -20 -20 -20 -20 -20 -20 -20 -20 -20 -20 -20 -20 -20 -20 -20 -20 -20 -20 -20 -20 -20 -20 -20 -20 -20 -20
-7 -3 -7 -16 -20 -20 -18 -20 -20 -16 11 -14 -20 -20 -20 -20 -20 -20 -20 -20 -11 -12 -13 -17 -15 -20 -20 -20 -20 -20 -20 -20 -20 -20 -20 -20 -20 -20 -20 -20 -20 -20 -20
-20 -20 -20 -17 -8 -20 -20 -20 -15 -20 16 -20 24 -20 -20 -20 -11 0 -20 -20 -15 -20 5 22 14 -20 -20 -20 13 4 -20 -20 -20 -20 -20 -20 -20 -20 -20 -20 -20 -20 -20
-16 -20 -20 -20 -20 -20 -20 -20 -20 -20 11 -8 17 -14 -20 -20 9 13 -10 -20 12 9 -1 11 -0 4 -20 -12 -9 10 -18 -20 -20 -20 -20 -20 -20 -20 -20 -20 -20 -20 -20
-20 -20 -20 -20 -20 -20 -20 -20 -7 16 -1 11 11 18 -0 -8 -6 28 6 -19 21 10 1 26 25 -5 5 -19 17 16 5 -0 -20 -20 -20 -20 -20 -20 -20 -20 -20 -20 -20
-20 -20 -20 -20 -20 -20 -20 -20 26 23 19 30 15 17 -12 -2 19 2 21 -17 13 -8 1 0 -12 -3 -15 -14 -2 22 5 -20 -14 -6 -17 -20 -20 -20 -20 -20 -20 -20 -20
-20 -20 -20 -20 -20 -20 -20 1 26 31 41 26 25 -16 -4 -6 31 -7 -18 -17 -20 -6 5 -20 -17 6 -19 -20 -7 7 3 12 8 -15 -20 -20 -20 -20 -20 -20 -20 -20 -20
-20 -20 -20 -20 -20 -20 -10 24 29 30 25 7 14 19 -20 15 13 -15 -20 -20 -16 12 1 2 13 -6 -20 -20 -20 -20 -20 -20 -20 -20 -20 -20 -20 -20 -20 -20 -20 -20 -20
10 23 26 -13 -20 -20 -4 28 38 24 -3 -20 -20 -17 -20 1 2 -20 -20 -12 -1 7 -1 -16 -20 -19 -20 -20 -20 -20 -20 -20 -20 -20 -20 -20 -20 -20 -20 -20 -20 -20 -20
20 25 30 11 -20 22 40 29 -1 -3 8 -20 -20 -18 -6 -20 -15 -11 -13 -2 -18 -13 -20 -18 -15 -20 -20 -20 -13 -20 -20 -20 -20 -20 -20 -20 -20 -9 -1 -8 9 15 -20
21 34 32 18 6 20 28 -18 -17 10 -20 6 -4 10 0 11 -20 -18 2 21 -8 2 6 -20 -20 -20 -11 -19 -20 -20 -20 -20 -20 -20 -20 -20 -14 -20 -10 -16 -20 -2 -17
30 23 30 25 8 23 -17 -5 -20 6 15 -17 -7 -0 12 5 -1 21 -13 -6 -20 -20 -20 -20 -20 -20 -20 -20 -20 -20 -20 -20 -20 -20 -20 -20 -20 -20 -20 -20 -20 -18 -20
-7 26 -20 -20 2 8 1 -20 -20 -20 8 2 -20 -20 -20 -20 5 -15 -10 -2 -20 -20 -20 -20 -20 3 -19 -20 -20 -20 -20 -20 -20 -20 -20 -20 -20 -20 -20 -20 -20 -20 -1
-15 -7 -8 -20 -8 18 18 -20 -20 -9 -10 19 -17 -20 -19 14 8 0 -18 -20 -20 -20 -20 -20 -20 -20 -20 -20 -20 -20 -20 -20 -20 -20 -20 -20 -20 -20 -20 -20 -12 -17 -20
31 -19 -20 -20 19 26 22 -9 -5 13 11 7 -20 -5 -5 7 -1 -15 -20 -20 -20 -20 -20 -20 -20 -20 -20 -20 -20 -20 -20 -20 -20 -20 -4 -20 -20 -20 -20 -20 -20 5 32
26 -6 -18 8 25 23 15 14 16 -2 1 5 -3 -7 -20 -20 -19 -20 -20 -20 -20 -20 -20 -20 -20 -20 -20 -20 -20 -20 -20 -20 -20 -20 -20 -20 -20 -17 -20 0 1 -9 -20
5 -20 16 26 15 11 17 14 14 -11 -16 -20 -20 -20 -20 -20 -20 -20 -20 -20 -20 -20 -20 -20 -20 -20 -20 -20 -20 -20 -20 -20 -20 -20 -3 -8 -10 -6 -20 -20 12 18 -20
18 18 23 18 12 12 16 10 0 -20 -20 -20 -20 -20 -20 -20 -20 -20 -20 -20 -20 -20 -20 -20 -20 -20 -20 -20 -20 -20 -6 -0 -20 -20 -20 -20 -20 -1 -20 -20 -13 13 -20
14 9 20 7 16 -19 -18 -20 -20 -20 -20 -20 -20 -20 -20 -20 -20 -20 -20 -20 -20 -20 -20 -20 -20 -19 -20 -20 -20 -20 -6 -6 -18 -19 -20 -18 -20 9 1 -20 -12 24 -18
Wind_Speed
7 5 5 5 3 4 5 5 5 5 6 6 6 6 5 5 5 3 2 9 11 11 13 12 12 12 11 9 9 8 7 6 7 7 8 7 8 9 10 11 11 11 11
8 6 5 5 4 4 4 5 5 4 5 5 5 5 6 5 5 5 3 3 8 10 11 11 12 11 11 9 9 7 5 5 5 5 5 6 7 7 8 8 9 10 11
9 7 7 5 4 4 6 4 4 3 4 3 5 4 5 5 4 5 4 3 2 7 10 12 13 13 11 10 9 7 4 3 2 2 3 4 5 5 6 7 9 10 10
8 8 7 5 4 5 4 4 4 3 3 4 3 4 4 4 5 5 4 3 3 2 6 10 12 12 11 9 9 7 6 5 2 2 3 4 3 3 4 6 8 9 11
6 6 5 4 5 4 3 4 3 3 3 3 3 3 4 4 5 4 5 5 5 4 4 8 10 9 10 9 9 9 9 6 5 3 4 3 3 4 5 7 9 10 12
5 4 4 5 4 4 3 3 3 3 3 4 2 3 3 3 3 4 5 5 5 6 5 6 5 5 11 11 11 10 10 8 6 5 5 3 3 2 2 6 8 10 12
5 5 4 5 5 5 6 6 4 5 3 3 3 2 2 4 5 4 4 5 6 6 6 5 4 4 4 13 13 13 12 10 8 8 6 6 6 3 2 5 7 10 12
5 5 6 5 5 4 5 6 5 3 3 4 4 2 1 3 4 6 4 5 6 4 5 6 5 6 5 4 7 15 13 12 11 11 10 9 8 5 3 5 7 10 12
4 5 5 5 6 5 5 5 6 6 5 4 4 5 2 5 1 1 5 4 5 4 4 4 6 6 6 6 8 9 12 11 13 12 13 12 10 8 6 5 7 9 11
6 5 6 6 6 6 6 7 7 6 5 5 1 2 2 4 3 3 2 3 5 6 5 5 6 7 8 5 10 11 11 10 12 16 16 15 14 12 10 8 8 8 10
6 7 8 7 8 6 7 8 6 8 7 4 4 3 1 1 2 3 4 2 1 3 4 5 7 6 6 5 6 8 14 13 16 20 20 19 18 16 14 11 10 10 11
4 7 7 7 8 8 9 9 11 10 10 8 5 4 5 4 4 4 3 4 3 3 3 3 6 6 5 4 7 11 14 16 18 20 21 22 20 19 17 15 14 12 12
6 8 6 8 7 9 10 8 7 7 7 8 8 7 3 4 3 2 3 2 4 2 2 4 4 3 3 4 5 10 14 13 16 19 20 21 22 21 20 18 17 15 14
9 7 7 9 11 9 8 6 4 2 7 8 10 6 4 5 4 4 5 4 2 3 2 5 1 3 2 3 7 12 7 18 19 18 21 21 21 21 22 21 21 19 17
7 7 8 10 9 8 8 7 6 10 9 7 7 6 4 4 4 3 3 2 3 2 4 3 3 2 2 2 5 5 6 11 17 17 19 20 21 23 23 22 23 22 20
7 8 8 8 10 9 8 11 8 6 8 5 4 7 5 3 3 3 4 3 2 2 2 2 3 2 2 3 6 4 7 13 13 16 18 20 22 24 23 24 24 22 22
8 7 7 6 8 8 7 7 8 8 8 7 6 7 6 6 4 3 3 2 2 2 4 2 3 2 2 5 5 4 6 6 6 15 19 22 23 25 28 24 22 22 21
8 9 7 8 7 9 10 10 9 8 9 9 8 7 7 4 6 4 3 3 3 3 3 6 3 3 5 5 6 6 6 5 6 12 18 22 26 27 28 27 24 20 23
13 11 9 6 7 7 7 8 9 8 8 9 9 9 8 7 4 3 3 3 3 2 3 3 4 2 3 3 5 4 5 7 6 14 17 21 22 26 26 26 27 26 20
13 11 10 9 7 7 6 8 9 8 7 6 6 6 7 6 5 4 3 3 3 2 2 2 4 6 2 3 3 4 8 5 6 6 10 13 15 20 24 26 26 22 19
8 8 9 8 8 7 6 9 9 8 9 8 7 6 5 4 4 4 1 0 2 1 1 2 4 4 4 4 4 3 7 10 10 4 9 10 8 10 11 19 20 16 17
8 9 9 10 10 6 13 13 11 9 9 8 8 6 7 12 12 11 10 8 5 2 0 2 2 3 4 4 2 4 8 10 13 3 5 11 5 9 8 5 12 13 19
10 9 9 10 8 7 12 13 12 7 7 7 7 8 7 6 7 5 6 5 5 4 2 2 3 3 4 3 6 9 8 10 12 11 11 15 4 10 8 9 17 20 20
10 10 9 8 9 6 12 13 13 9 9 8 7 7 8 6 6 5 4 4 3 2 1 2 4 6 6 6 6 9 11 12 13 10 7 14 9 10 8 8 17 20 19
9 8 7 9 10 9 14 14 13 9 9 8 7 6 6 6 7 6 4 4 4 4 6 11 13 15 16 15 14 8 8 9 12 12 4 8 10 9 4 7 8 19 13
9 8 9 9 11 9 13 14 11 6 7 6 5 6 9 5 5 5 3 3 4 4 6 7 7 8 9 8 13 7 8 11 11 13 5 3 8 6 5 3 4 4 3
Wind_Direction
149 146 140 127 118 119 113 105 120 115 116 116 129 135 141 143 144 149 149 158 150 155 153 153 149 144 141 143 139 126 101 81 61 60 64 68 61 50 51 41 28 22 19
144 155 135 124 146 135 122 142 140 138 136 129 138 143 152 150 157 155 153 187 177 171 172 168 164 160 155 151 151 139 118 98 64 56 60 69 57 53 43 32 24 15 10
155 154 158 140 156 130 121 124 117 108 111 119 138 146 153 166 162 156 172 196 202 197 184 180 179 178 177 177 172 163 143 113 86 78 81 65 51 48 35 20 7 358 354
152 169 146 156 149 139 149 134 138 141 157 162 153 173 177 179 173 170 177 188 186 220 213 195 190 190 194 197 186 188 183 188 201 171 113 82 43 41 18 360 348 342 339
174 136 135 155 155 137 166 156 161 145 158 188 185 185 192 196 187 168 194 196 200 209 209 213 194 179 180 197 210 212 212 193 206 184 131 102 68 42 8 346 337 332 331
164 145 137 164 159 154 184 159 154 162 162 180 174 187 237 227 201 200 205 196 199 201 197 190 171 180 188 204 217 223 226 215 207 192 162 140 127 101 347 331 331 329 325
178 167 166 166 168 175 192 183 145 169 203 146 109 19 284 251 253 233 211 209 206 204 194 197 194 180 205 212 217 223 228 232 230 208 195 189 179 179 296 312 317 315 312
191 188 171 175 179 161 162 172 154 153 182 177 150 105 260 304 252 231 213 224 223 203 209 212 199 192 204 213 223 228 229 236 239 224 207 205 196 196 230 283 300 306 308
221 209 190 180 181 176 191 180 173 181 192 208 209 149 110 234 344 212 220 209 211 208 222 222 217 207 207 217 224 224 224 230 237 231 211 211 209 209 225 260 286 299 301
227 213 215 194 186 188 189 198 196 198 164 192 241 215 98 145 193 302 234 221 187 215 213 229 225 223 220 214 219 217 220 217 221 214 217 218 219 220 225 239 257 278 290
211 214 206 199 203 195 207 197 187 202 205 174 187 144 139 135 104 191 260 276 23 213 201 216 226 227 216 213 222 221 220 208 203 207 218 223 224 228 229 234 243 262 280
227 223 210 202 209 206 205 209 213 205 206 206 186 181 175 163 172 188 204 209 197 258 222 214 227 220 208 203 225 236 230 208 204 208 216 225 227 231 233 236 243 253 268
230 230 211 220 220 219 218 206 205 213 200 204 197 208 176 187 141 151 171 196 228 235 272 224 210 213 220 213 214 210 221 217 212 218 220 223 227 232 238 239 243 249 256
235 234 216 217 219 212 196 166 162 233 215 213 201 179 174 181 171 168 178 165 226 243 240 248 237 204 226 213 225 223 222 221 228 219 221 222 224 231 236 238 240 244 249
234 220 214 217 222 213 194 184 200 223 195 193 194 170 180 185 162 137 119 140 163 196 227 215 232 287 277 302 257 242 233 237 232 232 231 229 230 234 235 235 238 240 243
219 232 239 222 213 200 194 193 215 184 176 178 156 157 156 151 143 138 141 152 163 173 248 210 246 260 298 288 272 253 250 250 249 237 236 237 238 241 242 239 237 237 244
194 212 224 221 220 201 185 193 186 175 170 151 145 166 149 143 138 142 124 128 181 181 257 257 229 267 269 268 275 232 239 230 229 240 241 243 243 242 242 244 244 241 240
179 207 212 213 203 187 183 178 174 169 157 160 158 148 142 150 139 143 138 209 212 214 242 274 234 241 236 258 259 275 270 250 229 237 241 243 243 245 243 241 238 230 240
200 178 188 193 207 187 185 159 157 156 159 159 157 158 152 142 151 172 167 222 223 249 239 253 283 249 265 290 290 282 263 265 264 263 254 250 249 249 248 244 235 231 247
195 198 181 179 176 156 159 137 133 137 131 127 125 134 143 158 162 174 206 243 257 270 302 281 291 298 275 313 276 280 293 282 281 268 263 262 260 256 249 244 241 240 248
186 165 144 139 141 156 159 145 140 143 137 140 138 134 135 135 95 90 132 67 19 262 288 292 291 288 283 293 292 290 289 296 288 254 275 269 261 261 257 250 244 216 224
148 140 147 142 147 167 145 136 135 137 137 143 138 112 91 97 93 87 83 81 91 98 236 225 239 275 288 290 322 302 307 298 296 259 266 279 253 256 242 218 215 224 238
144 141 136 138 147 129 128 124 119 129 128 111 104 116 106 93 86 90 71 61 52 27 340 286 281 277 296 290 289 293 285 280 282 289 296 287 259 256 249 238 227 228 231
134 134 134 130 120 118 121 115 101 99 93 89 89 99 106 94 73 72 55 27 19 347 311 258 240 259 253 265 257 275 279 279 280 281 262 278 276 265 254 240 238 238 221
123 122 122 124 117 116 110 109 105 98 99 92 89 87 96 97 70 38 59 19 351 354 350 332 317 308 306 307 305 306 294 294 291 291 263 265 280 273 237 248 229 222 206
120 114 98 97 105 111 120 115 114 112 102 99 85 81 81 82 52 42 73 45 6 357 340 328 320 316 312 298 303 293 297 295 292 292 277 252 289 270 270 235 206 210 166